Torna al catalogo

FENGYUN 1C DEB

AttivoSSO
NORAD 30905·DEBRIS·🇨🇳 China

Lanciato May 10, 1999 da Taiyuan Satellite Launch Center

Loading…

Prossimi Passaggi (prossime 24 ore)

TLE

In scadenzaSource: Space-Track

Epoca: Sep 9, 2026, 11:00 UTC

1 30905U 99025AYT 26252.45895390  .00001515  00000-0  73110-3 0  9999
2 30905  98.8789 333.2454 0053766  30.8670 329.5648 14.19410523999614

Traccia FENGYUN 1C DEB in tempo reale con AllMySat

Download on the App Store